TimePST,TemperatureF,Dew PointF,Humidity,Sea Level PressureIn,VisibilityMPH,Wind Direction,Wind SpeedMPH,Gust SpeedMPH,PrecipitationIn,Events,Conditions,WindDirDegrees,DateUTC
12:04 AM,53.6,51.8,94,30.18,3.0,Calm,Calm,-,N/A,,Mostly Cloudy,0,2012-12-04 08:04:00
12:20 AM,53.6,51.8,94,30.19,2.0,WSW,3.5,-,N/A,,Mostly Cloudy,240,2012-12-04 08:20:00
12:29 AM,53.6,51.8,94,30.18,2.0,Calm,Calm,-,N/A,,Mostly Cloudy,0,2012-12-04 08:29:00
12:41 AM,53.6,51.8,94,30.19,1.0,Calm,Calm,-,N/A,,Overcast,0,2012-12-04 08:41:00
12:53 AM,54.0,53.1,97,30.19,1.0,Calm,Calm,-,N/A,,Overcast,0,2012-12-04 08:53:00
1:05 AM,55.4,53.6,94,30.20,1.0,NNE,4.6,-,N/A,,Mist,20,2012-12-04 09:05:00
1:53 AM,55.0,53.1,93,30.21,1.0,NNE,4.6,-,N/A,,Overcast,30,2012-12-04 09:53:00
2:53 AM,55.0,53.1,93,30.20,1.0,East,4.6,-,N/A,,Mist,100,2012-12-04 10:53:00
3:53 AM,55.4,53.6,94,30.20,1.0,Calm,Calm,-,N/A,,Overcast,0,2012-12-04 11:53:00
4:34 AM,53.6,53.6,100,30.20,0.5,Calm,Calm,-,N/A,Fog,Fog,0,2012-12-04 12:34:00
4:53 AM,54.0,53.1,97,30.21,0.5,Calm,Calm,-,N/A,Fog,Fog,0,2012-12-04 12:53:00
5:53 AM,53.1,52.0,96,30.24,0.2,Calm,Calm,-,N/A,Fog,Fog,0,2012-12-04 13:53:00
6:53 AM,54.0,52.0,93,30.26,0.2,Calm,Calm,-,N/A,Fog,Fog,0,2012-12-04 14:53:00
7:53 AM,52.0,51.1,97,30.26,0.2,ESE,4.6,-,N/A,Fog,Fog,110,2012-12-04 15:53:00
8:18 AM,51.8,51.8,100,30.27,0.1,ESE,4.6,-,N/A,Fog,Fog,110,2012-12-04 16:18:00
8:53 AM,52.0,51.1,97,30.27,0.1,SE,3.5,-,N/A,Fog,Fog,140,2012-12-04 16:53:00
9:37 AM,53.6,51.8,94,30.27,0.8,SSE,4.6,-,N/A,,Overcast,160,2012-12-04 17:37:00
9:53 AM,53.6,51.8,94,30.28,1.0,SSE,6.9,-,N/A,,Overcast,150,2012-12-04 17:53:00
10:06 AM,53.6,51.8,94,30.28,0.5,SSE,8.1,-,N/A,Fog,Fog,160,2012-12-04 18:06:00
10:53 AM,55.0,53.1,93,30.27,0.5,SSE,6.9,-,N/A,,Overcast,160,2012-12-04 18:53:00
11:00 AM,55.4,53.6,94,30.27,1.0,SSE,5.8,-,N/A,,Overcast,150,2012-12-04 19:00:00
11:14 AM,55.4,53.6,94,30.27,2.0,SSE,6.9,-,N/A,,Overcast,160,2012-12-04 19:14:00
11:33 AM,55.4,53.6,94,30.26,2.0,Calm,Calm,-,N/A,,Overcast,0,2012-12-04 19:33:00
11:44 AM,57.2,53.6,88,30.25,3.0,Calm,Calm,-,N/A,,Overcast,0,2012-12-04 19:44:00
11:53 AM,57.0,53.1,87,30.25,3.0,ESE,3.5,-,N/A,,Overcast,110,2012-12-04 19:53:00
12:35 PM,59.0,53.6,82,30.23,6.0,Calm,Calm,-,N/A,,Haze,0,2012-12-04 20:35:00
12:53 PM,60.1,53.1,78,30.22,6.0,East,3.5,-,N/A,,Haze,100,2012-12-04 20:53:00
1:24 PM,60.8,53.6,77,30.21,6.0,East,3.5,-,N/A,,Haze,90,2012-12-04 21:24:00
1:53 PM,62.1,54.0,75,30.20,8.0,Calm,Calm,-,N/A,,Overcast,0,2012-12-04 21:53:00
2:53 PM,62.1,53.1,72,30.19,8.0,Calm,Calm,-,N/A,,Overcast,0,2012-12-04 22:53:00
3:53 PM,62.1,54.0,75,30.19,9.0,ESE,3.5,-,N/A,,Overcast,120,2012-12-04 23:53:00
4:53 PM,61.0,53.1,75,30.20,9.0,ENE,3.5,-,N/A,,Mostly Cloudy,70,2012-12-05 00:53:00
5:53 PM,60.1,54.0,80,30.21,8.0,Calm,Calm,-,N/A,,Mostly Cloudy,0,2012-12-05 01:53:00
6:53 PM,59.0,54.0,83,30.20,7.0,Calm,Calm,-,N/A,,Overcast,0,2012-12-05 02:53:00
7:53 PM,59.0,54.0,83,30.20,6.0,Calm,Calm,-,N/A,,Haze,0,2012-12-05 03:53:00
8:53 PM,57.9,54.0,87,30.21,5.0,Calm,Calm,-,N/A,,Mostly Cloudy,0,2012-12-05 04:53:00
9:53 PM,57.9,54.0,87,30.22,5.0,NNW,3.5,-,N/A,,Mostly Cloudy,330,2012-12-05 05:53:00
10:53 PM,55.9,53.1,90,30.22,4.0,East,4.6,-,N/A,,Mostly Cloudy,80,2012-12-05 06:53:00
11:53 PM,55.0,52.0,89,30.21,3.0,East,3.5,-,N/A,,Partly Cloudy,100,2012-12-05 07:53:00